World > North America > United States > Texas > Seaton

Hourly Seaton, TX Regional Weather

Feedback E-mail the Weather

Quick WX

Seaton, TX Weather Maps

°F °C°F °C
Seaton Weather Map
UTC Time: 8/17/2022, 01:32
Your Time:

Seaton, TX Regional Weather

Expires:202208170200;;168629
ASUS44 KFWD 170115
RWRTX 
NORTH TEXAS HOURLY WEATHER ROUNDUP
NATIONAL WEATHER SERVICE FORT WORTH TX
800 PM CDT TUE AUG 16 2022

NOTE: "FAIR" INDICATES FEW OR NO CLOUDS BELOW 12,000 FEET WITH NO
SIGNIFICANT WEATHER AND/OR OBSTRUCTIONS TO VISIBILITY.


TXZ143>147-156>162-174-175-170200-
CENTRAL TEXAS
  
CITY           SKY/WX    TMP DP  RH WIND       PRES   REMARKS
WACO           FAIR      94  64  37 S5        29.87S HX  95           
WACO-TSTC      CLEAR     93  57  29 CALM      29.87S HX  92           
WACO-MCGREGOR  FAIR      95  63  34 SE5       29.88S HX  96           
HILLSBORO      FAIR      95  61  32 SE7       29.88S HX  96           
MEXIA          FAIR      94  63  35 CALM      29.88R HX  96           
HEARNE         FAIR      94  67  40 CALM      29.87F HX  98           
CAMERON        FAIR      95  66  37 CALM      29.86F HX  98           
TEMPLE         FAIR      94  66  39 S8        29.89F HX  97           
KILLEEN        FAIR      94  62  34 S7        29.87S HX  94           
KILLEEN-SKYLRK FAIR      94  66  39 SE6       29.89F HX  97           
FORT HOOD      FAIR      94  63  35 SE6       29.89F HX  95           
GATESVILLE     FAIR      93  63  36 MISG      29.91S HX  94           
HAMILTON       FAIR      92  60  33 S6        29.93S HX  92           
LAMPASAS       FAIR      92  60  33 CALM        N/A  HX  92           
$$


SKY/WX - Weather  TMP - Temperature  DP - Dew Point  RH - Humidity
WIND - Wind Direction/Speed PRES - Barometric Pressure VSB - Visibility
WCI - Wind Chill Index E13G22 Wind - East Wind 13 mph/Gusts of 22 mph

Trending Headlines

Seaton Radar Loop



Seaton Quick Facts


National Two Day Weather Forecast


E-mail the Seaton Weather Forecast

Voice your opinion or tell us about page issues...